Vorticity
7 5 8 11 12 13 13 14 14 13 12 9 9 9 7 8 7 7 7 7 6 4 4 7 6 10 18 13 6 5 5 6 6 4 2 1 3 8 9 6 3 5 9 8 5 5 5 6 8 8 8 8 7 6 6 6 7 7 6 7 9 9 9 9 8 6 5 5 5 7 7 6 7 8 7 7 10 11 11 9 9 8 7 7 7
9 5 7 10 10 9 9 10 11 13 15 14 13 11 9 8 7 7 8 7 7 5 4 7 6 11 19 13 4 5 6 6 5 3 1 2 7 10 6 3 3 6 7 5 6 8 6 3 5 6 6 6 6 6 6 5 5 5 6 6 7 9 9 8 8 7 5 6 7 9 9 7 7 8 7 5 6 9 10 9 8 7 6 5 3
9 4 7 9 9 8 8 10 11 11 13 16 17 16 14 11 6 7 7 6 7 6 6 8 6 11 18 11 4 6 6 4 3 2 2 6 10 7 3 3 4 3 3 3 4 6 5 3 3 5 5 5 6 6 6 6 5 5 5 6 7 8 7 6 7 6 4 5 6 6 6 5 6 6 6 6 6 7 8 9 11 10 6 4 2
8 4 7 9 7 7 8 10 11 13 13 15 19 21 20 17 12 9 6 5 7 7 6 6 6 13 17 8 4 7 5 3 3 1 4 10 8 3 3 4 2 1 3 2 1 5 8 7 5 4 3 3 4 4 4 5 5 6 6 6 6 5 5 5 6 5 4 4 5 6 5 4 5 5 6 7 7 8 8 8 10 11 9 9 8
10 6 7 7 6 6 7 9 11 14 13 11 13 19 22 22 19 15 12 10 9 8 7 5 9 16 13 5 5 7 5 4 2 3 9 9 4 2 3 3 -0 2 5 1 1 10 15 10 7 5 4 4 3 3 4 6 6 7 7 7 7 5 5 5 6 6 6 5 4 5 6 6 5 5 6 8 8 8 8 7 7 7 7 8 9
9 6 6 7 6 5 6 8 7 7 9 8 7 11 17 20 19 20 23 19 10 7 6 5 10 15 9 5 6 6 6 4 1 7 12 5 2 3 3 0 1 2 3 2 5 16 19 10 5 5 4 4 4 3 3 6 8 9 11 11 9 7 7 8 8 7 6 5 4 3 4 6 5 3 5 9 9 7 7 7 7 6 6 7 10
8 6 5 6 5 5 6 6 4 3 3 5 5 6 10 15 17 19 22 16 8 7 7 7 11 12 6 4 5 6 5 3 5 11 9 2 3 4 0 -0 2 3 3 4 7 15 16 9 5 5 4 3 4 4 5 7 8 9 12 15 12 8 7 8 9 8 5 4 4 4 4 4 3 3 6 8 7 6 6 7 9 9 9 10 11
9 8 7 5 3 2 3 5 6 5 3 5 8 9 8 10 13 16 16 11 6 6 8 8 9 9 7 4 5 7 4 3 9 12 4 1 4 2 -1 1 2 3 5 6 8 13 12 7 4 4 4 4 4 5 8 11 12 12 14 14 11 7 6 8 8 7 6 5 3 4 7 4 2 5 7 7 7 7 8 10 11 10 9 11 11
12 10 8 5 2 0 1 3 5 7 5 4 6 9 11 11 10 12 15 16 11 8 10 10 7 8 8 5 6 7 4 6 12 9 1 2 3 -1 -1 2 3 4 6 6 9 10 9 7 6 4 3 5 6 8 11 12 13 13 13 12 9 5 4 7 9 6 4 4 4 5 8 5 3 7 8 7 9 10 10 12 11 6 5 8 11
11 10 10 9 6 4 4 2 3 5 6 3 1 3 8 12 12 11 12 15 14 11 11 10 8 8 8 7 10 7 4 9 11 3 0 2 1 -1 1 2 3 4 4 6 9 10 9 8 4 2 3 4 4 6 10 12 13 12 10 9 6 5 5 7 9 8 4 3 3 5 9 7 5 9 9 8 11 11 9 8 6 5 7 10 13
8 7 9 9 8 9 9 6 4 4 5 5 2 0 1 6 11 14 13 13 14 13 13 12 11 10 8 9 11 7 4 10 8 -0 0 2 -1 1 2 2 4 4 2 6 8 7 8 8 3 1 4 3 -0 3 8 11 12 11 10 8 3 2 5 6 6 6 5 5 3 3 9 10 8 9 9 9 10 8 4 5 7 9 12 14 15
5 5 4 3 5 9 11 10 8 6 6 5 3 2 2 3 5 10 13 15 15 13 12 14 12 8 7 10 14 10 6 8 5 -0 1 2 1 2 2 2 4 2 2 6 7 6 6 5 3 1 -0 -5 -10 -3 8 11 11 12 9 7 4 1 3 5 6 7 7 8 7 5 9 11 10 8 7 7 8 6 5 9 13 14 16 17 17
3 4 4 3 2 3 6 8 9 10 7 5 4 3 3 2 2 6 9 12 17 18 17 18 16 10 7 11 15 12 7 5 3 1 2 1 1 2 1 3 4 1 2 4 4 6 5 5 11 14 13 4 -10 -8 6 10 10 13 9 5 4 3 3 4 4 6 7 8 8 8 9 11 9 7 6 6 7 8 10 14 16 18 18 17 15
3 3 5 4 1 1 3 4 7 10 8 4 4 3 3 4 3 5 6 6 12 17 18 18 19 14 8 11 15 13 8 5 2 2 3 2 2 3 2 4 4 1 3 3 3 5 2 2 12 17 18 12 -3 -6 8 13 9 10 6 4 6 5 4 4 4 5 6 7 8 8 8 9 8 6 6 7 9 11 14 16 16 15 14 12 14
6 4 3 2 2 3 4 4 7 11 11 8 8 6 4 3 4 6 7 4 6 12 17 21 24 20 10 8 14 14 10 6 2 3 3 0 1 3 3 4 4 2 2 2 2 3 0 1 6 4 6 6 -2 4 19 15 6 7 4 3 8 7 5 4 5 6 6 7 9 8 7 8 8 8 8 9 12 14 15 15 12 10 13 15 17
11 8 2 2 4 4 4 4 4 6 8 8 12 14 11 7 5 5 6 5 4 9 14 18 22 23 14 7 11 17 14 7 2 2 2 0 1 2 3 4 3 2 2 2 2 1 -1 2 4 1 4 0 -4 19 35 16 1 6 6 4 7 6 5 5 5 7 9 8 8 8 7 7 8 10 11 13 15 15 13 12 12 14 19 19 17
11 8 4 6 5 3 4 5 5 6 2 -2 3 12 13 9 5 4 5 5 4 5 9 11 16 22 17 7 10 20 20 9 1 2 2 -0 0 1 2 4 3 1 1 1 2 1 -0 2 1 -1 3 1 4 30 37 10 0 9 5 3 7 5 4 6 5 7 9 8 8 7 7 9 10 11 14 15 15 14 12 14 18 19 19 17 16
4 7 10 12 7 4 5 5 9 11 0 -7 1 9 9 8 6 5 5 4 2 4 7 9 14 19 17 10 10 18 20 10 1 3 4 1 1 0 -0 2 1 0 1 2 2 0 -1 1 1 -1 1 5 16 37 32 7 4 11 5 3 6 5 6 8 7 9 8 6 7 8 8 10 12 12 14 15 13 13 15 19 20 18 17 16 14
8 15 18 14 4 -1 -3 -1 6 7 -4 -5 6 12 7 4 4 5 5 5 3 4 7 10 13 17 17 13 9 11 17 12 3 3 4 0 -0 1 -0 1 0 -2 1 3 1 -1 -1 1 0 -2 3 11 21 34 31 15 7 7 5 5 5 3 7 9 8 9 8 6 7 9 10 11 12 12 13 13 14 15 19 21 20 17 15 11 9
7 11 8 2 -3 -4 -2 2 4 4 2 4 14 19 11 2 3 6 4 5 3 0 4 7 8 14 18 15 8 10 17 16 7 3 3 0 0 0 -1 -1 -1 -2 2 4 -0 -1 2 4 1 -3 3 16 23 23 20 12 6 5 6 6 4 4 7 9 9 7 6 7 10 10 10 10 10 12 14 14 17 19 20 21 18 12 9 7 8
5 6 4 0 1 3 4 5 4 6 11 10 15 28 20 2 2 8 5 5 5 0 1 4 5 11 17 15 14 16 19 17 8 1 1 -0 -1 1 1 -1 -3 -1 3 4 2 3 2 0 1 2 4 12 16 13 10 8 6 6 7 5 5 7 9 8 8 7 7 10 12 10 9 9 9 12 15 17 19 20 20 18 11 6 6 8 9
3 5 8 7 8 8 7 7 6 6 7 -0 3 25 28 6 -1 6 6 7 8 3 -0 1 3 6 9 14 18 18 16 15 8 1 2 1 -1 1 2 0 -0 1 1 1 1 4 5 1 -1 3 8 11 12 9 8 8 7 6 6 7 7 9 9 8 7 7 9 11 11 8 7 8 11 14 18 19 20 20 17 11 5 5 8 9 9
1 5 9 7 5 4 5 6 5 5 7 1 0 17 29 17 3 1 3 8 12 7 0 1 5 5 6 13 17 13 12 15 9 1 1 1 0 3 2 1 -0 -3 -3 3 6 3 4 6 4 4 10 14 12 8 6 6 8 7 6 8 10 9 8 7 7 8 11 11 8 6 7 9 13 17 19 20 19 17 12 5 3 6 9 9 10
-1 -1 2 4 4 5 5 6 7 7 6 4 1 4 14 18 13 9 8 8 7 4 1 3 4 0 2 10 11 9 13 16 10 2 -0 0 0 1 1 -0 -2 -7 -7 4 16 13 5 5 6 7 14 18 12 7 7 6 6 8 8 9 11 9 7 8 8 10 12 10 6 6 9 12 15 18 20 19 17 13 7 2 4 9 11 11 11
2 6 11 14 12 12 11 9 10 9 3 3 6 4 3 5 6 9 14 14 10 8 10 12 7 1 5 10 8 6 11 13 7 0 -1 2 2 -0 -1 -2 1 9 1 -15 -7 11 11 5 6 7 12 17 12 6 7 7 6 9 11 10 9 8 7 9 10 11 11 8 6 6 10 14 16 18 18 17 14 9 4 4 8 11 13 13 11
15 21 24 19 10 10 11 8 7 8 3 2 7 9 6 3 1 6 13 13 7 3 4 8 9 9 10 9 5 4 4 5 6 4 2 1 -2 -2 1 -4 2 20 5 -35 -33 2 12 6 8 10 10 14 12 7 6 7 8 10 11 9 8 9 9 9 10 11 9 7 6 8 12 15 16 17 17 15 10 5 4 8 12 13 13 13 11
12 13 16 12 4 4 7 8 9 12 10 7 8 9 8 5 4 6 8 5 2 2 4 8 11 13 16 18 15 8 2 -1 -0 0 2 4 1 1 -0 -8 -8 6 4 -11 -6 11 14 12 12 9 9 12 10 8 7 7 9 12 11 9 9 9 9 9 10 9 7 6 7 10 13 15 16 17 16 12 7 5 7 11 13 13 13 13 12
2 3 5 4 -0 1 3 4 6 9 9 7 6 6 6 4 3 4 4 3 4 5 7 8 6 6 18 29 22 7 4 7 5 0 2 4 4 2 1 1 1 -4 -5 8 10 -9 -11 9 12 3 8 12 8 8 9 7 11 13 9 9 10 9 10 10 9 8 7 7 9 11 13 15 16 15 14 9 5 6 10 12 13 13 13 12 12
4 4 3 4 5 7 7 5 5 8 8 6 6 7 8 6 2 3 6 6 5 5 8 11 9 6 12 19 15 7 7 8 2 1 4 4 6 9 3 0 8 5 -1 9 8 -15 -13 11 11 0 7 11 7 8 9 8 12 13 8 9 10 8 10 11 7 7 7 7 9 12 13 15 16 14 11 7 5 8 11 12 13 13 13 12 11
8 7 8 10 9 7 8 8 7 6 5 5 6 7 7 7 5 5 4 2 1 3 6 9 11 12 13 13 9 6 7 10 10 9 4 -3 1 13 11 -0 0 4 0 -1 -1 -4 4 12 5 1 8 10 6 9 9 9 13 11 8 10 10 8 11 11 6 6 7 7 10 13 13 14 15 13 9 6 6 9 11 12 13 13 12 12 11
8 9 10 11 9 10 15 15 10 7 7 7 7 7 8 8 8 6 5 4 4 6 9 10 9 12 17 17 13 4 0 10 19 18 13 11 6 4 9 12 6 3 8 11 8 5 10 11 4 3 9 10 7 8 8 10 12 10 8 10 10 9 10 9 6 6 6 8 12 13 13 13 13 11 9 7 7 10 11 12 13 12 12 12 12
7 8 9 8 11 17 19 16 13 12 11 10 10 9 8 8 9 9 9 9 6 4 6 8 8 10 13 13 12 10 8 14 17 4 -5 10 23 16 8 7 3 3 12 13 -1 -8 -0 8 7 6 9 11 8 7 9 11 11 10 10 10 9 10 10 8 7 6 6 10 13 12 11 13 13 10 8 6 7 10 11 12 12 12 11 11 11
7 9 12 14 16 15 12 10 9 8 10 14 14 14 14 13 11 10 8 7 8 7 7 6 4 5 12 16 15 15 13 14 21 17 4 9 29 32 16 -1 -7 3 14 7 -8 -5 9 11 7 9 12 11 8 7 9 12 11 10 10 9 8 9 9 7 6 6 8 11 12 11 11 13 12 9 7 6 9 11 12 11 11 11 11 11 11
9 12 15 18 17 13 10 9 9 10 14 15 12 12 14 12 10 10 10 11 10 5 3 6 4 -1 1 8 10 12 10 3 6 20 34 39 32 17 8 -0 -13 -10 10 17 11 14 22 15 8 11 13 9 8 8 9 11 12 10 10 9 8 8 9 8 6 7 10 11 11 10 12 13 11 8 6 7 10 11 11 11 11 10 11 11 10
12 12 13 15 15 14 14 13 12 12 11 9 9 11 11 12 15 14 11 11 10 4 3 8 8 6 9 11 9 10 13 8 -5 -13 -3 17 18 6 12 19 -3 -20 2 21 11 6 17 19 12 11 11 8 7 9 10 11 12 10 10 10 8 7 8 8 7 8 10 11 10 11 12 12 10 7 6 8 10 11 10 11 10 10 10 9 9
13 13 15 17 16 15 14 12 12 12 11 12 14 10 5 8 9 9 17 22 9 -1 8 15 8 6 12 15 12 7 3 7 9 0 6 34 42 18 11 25 20 7 16 22 9 6 21 23 11 7 10 9 7 8 11 12 11 11 11 9 7 7 7 8 8 8 9 10 10 11 13 12 9 7 6 8 10 10 10 11 10 8 7 7 7
12 13 13 13 12 13 15 15 15 16 14 13 13 12 16 21 16 24 60 81 53 20 22 30 24 20 19 15 10 0 -9 -1 13 10 13 31 22 -17 -31 -6 16 22 19 10 4 12 19 14 7 6 8 8 8 9 11 12 11 12 12 8 6 7 7 7 8 9 9 9 10 12 13 11 7 6 7 9 10 10 10 10 8 6 5 5 5
13 13 10 10 12 13 14 11 9 12 18 27 37 38 37 40 37 31 43 72 92 88 61 23 3 5 2 1 13 16 -1 -9 -1 3 4 -2 -20 -30 -16 2 7 14 17 11 13 22 18 9 8 9 6 7 11 10 11 12 12 12 11 8 6 7 8 8 9 9 9 9 10 13 13 9 6 6 8 9 10 9 9 8 6 4 4 4 4
13 11 11 14 14 12 11 10 16 29 35 38 47 51 48 58 75 65 39 42 75 89 65 45 62 82 53 6 -3 13 9 -6 -1 19 27 8 -12 0 25 18 -3 1 14 15 16 20 13 6 9 11 8 9 11 11 12 13 12 12 11 6 5 8 9 8 9 9 9 10 11 12 12 8 5 6 8 9 10 9 8 7 4 3 4 4 4
13 15 17 16 12 13 20 25 32 45 43 24 19 35 45 44 38 37 50 69 67 47 37 43 61 86 86 44 1 -2 12 23 39 56 50 27 20 32 35 17 4 8 16 15 15 14 10 8 11 10 8 9 12 12 12 12 12 12 9 5 5 9 9 8 9 10 10 10 10 11 11 7 5 6 8 9 10 9 6 5 4 3 4 5 5
13 13 11 11 12 19 29 29 22 26 33 26 19 28 46 48 23 3 21 48 36 15 22 5 -53 -66 -6 44 40 22 12 10 30 50 36 11 9 14 6 5 17 20 13 9 9 7 7 10 10 8 9 13 14 13 12 11 12 12 7 4 6 9 9 8 10 11 10 9 9 11 11 7 4 6 8 9 10 8 5 3 3 3 3 5 6
11 8 6 9 12 12 14 15 8 8 19 26 20 13 22 42 47 34 30 37 28 19 35 37 1 -17 9 35 41 42 27 9 27 56 48 21 14 14 6 11 19 13 4 5 8 7 10 12 9 9 13 16 14 12 11 11 12 10 6 5 7 9 9 9 10 11 10 9 8 11 11 6 4 6 8 8 9 8 5 3 2 2 3 4 5
9 10 10 12 12 11 12 12 8 8 13 11 6 5 9 15 20 22 24 35 43 42 41 45 50 57 58 48 45 50 43 30 40 55 49 36 33 27 14 8 5 1 3 9 10 9 11 10 9 12 15 15 14 12 10 11 12 9 5 5 7 9 10 10 10 11 10 8 9 12 10 6 4 6 7 8 8 8 6 3 1 2 3 4 5
11 14 12 10 13 17 20 19 14 16 20 12 0 3 11 8 3 6 10 10 11 18 22 22 19 17 18 24 28 26 17 12 13 13 11 13 13 6 1 2 3 6 10 11 9 11 13 13 13 15 14 13 12 10 9 12 13 8 6 6 7 8 10 10 10 11 10 9 10 12 9 5 4 5 7 8 8 8 7 3 1 2 3 3 4
15 16 12 11 12 8 4 9 11 7 6 7 2 -1 2 -4 -14 -9 5 10 5 0 -1 1 5 7 6 4 4 3 3 4 2 1 3 5 3 2 4 7 6 8 10 9 11 13 14 13 14 14 11 11 10 9 10 13 12 8 7 7 6 8 10 10 9 10 10 10 11 10 8 6 4 4 7 8 8 8 7 3 1 2 2 2 4
16 17 12 11 12 5 -1 6 14 7 1 4 6 3 5 4 -3 -3 5 9 6 5 6 5 4 5 5 5 5 6 8 5 1 0 1 0 1 4 6 7 10 12 11 11 14 15 13 12 13 11 10 10 9 9 12 13 11 9 8 6 7 9 10 9 9 10 11 12 12 10 8 6 4 4 7 8 8 8 7 4 2 3 2 2 4
14 16 14 10 7 3 -0 4 10 10 10 10 6 2 7 11 9 10 18 20 11 4 6 10 11 12 15 17 16 15 13 7 -1 -3 -2 1 5 9 10 11 12 12 10 12 15 14 12 11 11 9 9 9 9 11 13 13 11 9 7 6 7 9 8 9 10 10 10 12 12 9 8 7 3 4 7 8 7 7 6 4 4 4 2 2 3
14 12 15 16 11 4 0 1 3 5 9 10 9 9 14 14 7 3 11 23 26 13 -0 -1 11 23 25 16 4 -2 -1 -2 -4 -0 8 13 12 13 14 14 14 14 16 17 15 11 11 11 10 9 9 9 9 12 14 13 10 9 7 7 8 9 8 9 10 9 11 13 12 10 9 6 3 3 6 7 7 7 6 5 6 4 3 3 3
17 12 10 11 11 7 -1 -5 -1 4 4 2 4 8 10 11 14 17 17 16 17 17 15 14 14 9 1 -7 -10 -8 -1 6 11 16 20 20 17 17 19 19 19 18 16 12 9 9 10 9 8 8 9 9 11 13 13 11 9 8 7 8 8 8 9 9 9 10 12 13 11 10 9 6 3 4 5 6 6 6 5 6 7 5 5 5 3
22 21 16 11 8 6 1 0 7 11 5 -2 5 20 27 22 17 20 22 18 16 19 23 23 19 14 10 13 17 17 16 17 20 22 22 22 22 22 20 17 15 13 10 8 9 10 9 8 10 11 10 9 11 13 13 11 9 7 8 9 9 9 10 10 9 11 13 13 12 11 9 6 4 4 4 5 6 6 5 6 6 6 6 6 4
18 23 24 21 15 10 7 7 8 7 6 9 13 17 19 16 11 8 9 16 27 32 23 13 17 25 26 23 24 26 25 24 24 23 22 20 17 14 11 10 8 8 7 8 8 8 8 9 10 9 9 11 14 14 12 10 7 7 8 9 9 10 11 10 10 11 12 12 12 11 9 7 6 4 4 5 6 5 5 6 6 6 7 7 6
Height
5896 5896 5896 5896 5896 5896 5897 5897 5898 5898 5899 5900 5901 5902 5903 5903 5904 5904 5905 5906 5906 5907 5907 5908 5908 5908 5909 5909 5909 5910 5910 5910 5911 5911 5912 5913 5912 5912 5912 5911 5911 5910 5910 5909 5908 5906 5905 5904 5902 5901 5899 5898 5896 5894 5893 5892 5891 5890 5889 5888 5887 5886 5885 5884 5883 5883 5882 5881 5880 5879 5877 5875 5874 5873 5871 5870 5868 5866 5864 5862 5860 5858 5855 5853 5851
5893 5893 5893 5893 5894 5894 5894 5895 5895 5896 5896 5897 5898 5899 5899 5900 5901 5901 5902 5903 5904 5904 5905 5905 5905 5906 5907 5907 5908 5908 5908 5909 5909 5909 5910 5910 5910 5910 5910 5909 5908 5908 5907 5906 5905 5904 5903 5902 5900 5899 5897 5896 5895 5893 5892 5891 5890 5889 5888 5887 5886 5885 5884 5883 5881 5880 5879 5878 5877 5876 5874 5873 5871 5870 5869 5867 5865 5863 5861 5859 5857 5854 5852 5849 5847
5890 5890 5891 5891 5892 5892 5892 5893 5893 5894 5894 5895 5895 5896 5896 5897 5897 5898 5899 5900 5901 5902 5902 5902 5903 5904 5905 5906 5906 5907 5907 5907 5907 5907 5908 5908 5908 5908 5908 5907 5906 5905 5904 5904 5903 5902 5901 5899 5898 5897 5895 5894 5893 5892 5890 5889 5888 5887 5886 5885 5884 5883 5882 5881 5880 5878 5877 5876 5874 5873 5871 5870 5868 5867 5865 5863 5861 5859 5857 5855 5853 5851 5849 5847 5845
5887 5887 5888 5889 5889 5890 5891 5891 5892 5892 5892 5892 5892 5893 5893 5893 5894 5895 5896 5897 5898 5899 5899 5899 5900 5901 5903 5904 5905 5905 5905 5906 5905 5906 5906 5906 5906 5906 5905 5904 5903 5903 5902 5901 5901 5900 5898 5897 5895 5894 5893 5892 5891 5890 5888 5887 5886 5885 5884 5883 5882 5881 5880 5878 5877 5876 5875 5873 5871 5870 5868 5866 5864 5862 5861 5859 5858 5856 5854 5852 5850 5848 5846 5844 5842
5884 5885 5886 5887 5887 5888 5889 5889 5890 5890 5890 5890 5890 5890 5890 5890 5891 5892 5893 5894 5895 5896 5896 5897 5898 5899 5900 5901 5902 5903 5903 5904 5904 5904 5904 5904 5904 5904 5903 5902 5901 5901 5900 5899 5898 5897 5896 5894 5893 5892 5891 5889 5888 5887 5886 5885 5884 5883 5882 5881 5880 5878 5877 5876 5875 5873 5872 5870 5868 5866 5865 5863 5861 5858 5857 5855 5854 5852 5851 5849 5848 5845 5843 5841 5838
5881 5883 5883 5884 5885 5886 5887 5887 5888 5888 5888 5888 5888 5888 5888 5888 5888 5889 5890 5891 5892 5893 5894 5895 5895 5897 5898 5899 5900 5901 5902 5902 5902 5902 5901 5901 5901 5901 5901 5900 5899 5898 5897 5896 5895 5894 5893 5891 5890 5889 5888 5887 5885 5884 5883 5882 5881 5880 5879 5878 5877 5875 5874 5873 5871 5870 5869 5867 5865 5863 5861 5859 5857 5854 5852 5851 5849 5848 5846 5845 5843 5840 5838 5836 5833
5878 5880 5881 5882 5883 5884 5885 5885 5886 5886 5887 5887 5886 5886 5887 5887 5887 5887 5888 5889 5890 5891 5891 5892 5893 5894 5895 5896 5898 5899 5900 5900 5900 5900 5899 5899 5899 5899 5899 5898 5897 5896 5894 5893 5892 5891 5890 5889 5888 5887 5886 5884 5883 5882 5881 5880 5878 5877 5876 5875 5874 5872 5870 5869 5868 5867 5865 5863 5861 5859 5857 5854 5852 5850 5847 5846 5844 5842 5841 5839 5837 5834 5831 5830 5827
5876 5877 5878 5879 5881 5882 5883 5883 5884 5884 5885 5885 5885 5885 5885 5885 5885 5885 5886 5887 5888 5889 5890 5890 5891 5892 5893 5894 5895 5896 5897 5898 5898 5898 5897 5897 5897 5897 5896 5896 5895 5893 5892 5891 5890 5889 5887 5886 5885 5884 5883 5882 5880 5879 5877 5876 5875 5874 5873 5872 5871 5869 5867 5866 5864 5863 5862 5860 5857 5855 5853 5850 5848 5846 5843 5841 5839 5837 5835 5833 5831 5828 5825 5823 5820
5873 5875 5876 5877 5879 5880 5880 5881 5882 5882 5883 5883 5883 5883 5883 5883 5883 5883 5884 5885 5886 5886 5887 5888 5888 5889 5890 5891 5893 5894 5895 5896 5896 5895 5895 5895 5895 5895 5894 5893 5892 5891 5890 5888 5887 5886 5885 5884 5883 5882 5880 5879 5877 5876 5875 5874 5872 5871 5870 5869 5867 5865 5864 5862 5861 5859 5858 5856 5853 5851 5849 5847 5844 5842 5840 5837 5835 5833 5830 5827 5825 5822 5819 5816 5813
5871 5872 5874 5876 5876 5877 5877 5878 5879 5880 5881 5881 5881 5881 5881 5881 5880 5881 5882 5883 5884 5884 5885 5886 5887 5887 5888 5889 5890 5891 5892 5893 5893 5892 5892 5892 5892 5892 5891 5890 5889 5888 5887 5886 5885 5884 5882 5881 5879 5879 5878 5876 5875 5873 5872 5871 5870 5868 5867 5865 5864 5862 5860 5859 5857 5855 5853 5851 5849 5847 5845 5843 5840 5838 5835 5832 5830 5827 5824 5821 5818 5815 5812 5810 5807
5869 5870 5872 5873 5874 5874 5875 5876 5876 5877 5878 5879 5879 5879 5878 5878 5878 5878 5879 5880 5881 5881 5882 5883 5885 5885 5886 5886 5887 5888 5889 5889 5889 5889 5889 5889 5889 5889 5888 5887 5887 5886 5884 5884 5882 5881 5879 5878 5876 5875 5875 5874 5873 5871 5870 5869 5867 5865 5864 5862 5860 5858 5857 5855 5853 5851 5849 5847 5845 5843 5841 5838 5836 5833 5830 5827 5824 5821 5818 5815 5811 5808 5806 5804 5802
5866 5868 5869 5870 5871 5872 5872 5873 5874 5875 5876 5876 5876 5876 5875 5876 5876 5876 5876 5877 5878 5879 5879 5881 5882 5882 5883 5883 5884 5885 5885 5885 5886 5886 5886 5886 5886 5886 5886 5885 5884 5883 5882 5881 5880 5879 5877 5874 5872 5872 5873 5872 5871 5869 5868 5866 5864 5862 5860 5859 5857 5855 5853 5851 5849 5847 5845 5843 5841 5839 5836 5834 5831 5828 5824 5822 5819 5815 5812 5808 5805 5802 5800 5797 5795
5863 5865 5866 5867 5868 5869 5870 5871 5872 5872 5873 5873 5873 5873 5873 5873 5874 5874 5873 5874 5875 5876 5877 5877 5878 5879 5879 5880 5881 5881 5881 5882 5882 5883 5883 5883 5883 5883 5883 5883 5882 5881 5880 5879 5878 5876 5874 5872 5871 5871 5871 5870 5869 5867 5866 5864 5862 5859 5857 5855 5853 5851 5849 5847 5845 5843 5842 5839 5837 5834 5832 5829 5826 5823 5819 5817 5813 5809 5805 5802 5799 5796 5793 5790 5788
5860 5862 5863 5864 5865 5866 5867 5868 5869 5870 5870 5870 5869 5870 5870 5870 5871 5871 5871 5871 5871 5873 5873 5874 5874 5875 5876 5877 5877 5878 5878 5879 5880 5880 5880 5880 5880 5880 5880 5880 5880 5879 5878 5877 5875 5874 5872 5870 5869 5869 5868 5867 5865 5865 5864 5861 5859 5856 5853 5851 5849 5847 5846 5843 5841 5839 5837 5835 5832 5829 5827 5824 5821 5818 5814 5811 5808 5803 5800 5796 5793 5790 5787 5784 5782
5857 5858 5859 5860 5861 5863 5863 5865 5866 5866 5866 5866 5866 5866 5867 5868 5868 5868 5868 5868 5868 5869 5870 5870 5871 5872 5873 5874 5874 5874 5875 5876 5877 5877 5877 5877 5877 5877 5877 5878 5877 5877 5875 5874 5873 5872 5870 5868 5867 5865 5864 5862 5861 5860 5859 5858 5855 5852 5850 5847 5845 5843 5841 5839 5837 5835 5833 5830 5827 5825 5822 5819 5816 5812 5809 5806 5802 5798 5795 5791 5788 5785 5782 5779 5776
5854 5855 5856 5857 5858 5859 5860 5861 5862 5862 5862 5862 5862 5863 5863 5864 5865 5864 5864 5865 5865 5866 5866 5867 5868 5869 5869 5870 5871 5871 5872 5873 5873 5874 5874 5874 5873 5873 5874 5875 5875 5874 5872 5871 5871 5870 5868 5866 5864 5862 5860 5858 5857 5855 5854 5853 5851 5848 5846 5844 5842 5840 5837 5835 5833 5831 5829 5826 5824 5821 5817 5814 5811 5808 5805 5801 5797 5793 5790 5786 5783 5780 5777 5774 5772
5849 5851 5852 5853 5854 5855 5856 5857 5857 5858 5858 5858 5859 5859 5860 5861 5861 5861 5861 5861 5862 5862 5863 5863 5864 5865 5865 5866 5867 5868 5869 5870 5870 5870 5870 5869 5869 5869 5871 5871 5871 5871 5869 5869 5868 5867 5865 5863 5861 5860 5857 5855 5853 5851 5849 5848 5846 5844 5842 5840 5838 5836 5833 5831 5829 5827 5825 5822 5819 5816 5813 5810 5807 5804 5800 5796 5792 5788 5785 5781 5778 5775 5773 5770 5767
5845 5846 5847 5848 5850 5850 5851 5851 5852 5853 5853 5854 5854 5855 5856 5857 5857 5857 5857 5858 5858 5859 5859 5859 5859 5860 5861 5862 5863 5864 5865 5866 5866 5866 5866 5865 5864 5865 5867 5867 5868 5867 5866 5865 5865 5864 5862 5860 5858 5856 5854 5851 5849 5846 5845 5844 5843 5840 5838 5836 5834 5832 5829 5827 5825 5823 5820 5817 5814 5811 5808 5805 5802 5799 5795 5791 5787 5783 5780 5777 5774 5771 5768 5766 5763
5842 5842 5842 5843 5844 5845 5846 5846 5846 5847 5849 5849 5849 5849 5850 5851 5852 5852 5853 5853 5854 5854 5854 5854 5855 5856 5857 5858 5858 5859 5860 5861 5862 5861 5861 5860 5860 5861 5862 5863 5864 5863 5862 5861 5861 5860 5858 5856 5855 5853 5851 5848 5845 5843 5841 5841 5839 5836 5834 5832 5830 5828 5826 5824 5821 5818 5815 5813 5810 5807 5804 5801 5798 5794 5790 5786 5782 5779 5776 5773 5770 5768 5765 5762 5759
5838 5838 5838 5838 5839 5840 5841 5841 5842 5843 5844 5844 5844 5844 5845 5846 5847 5847 5848 5849 5849 5849 5849 5850 5851 5851 5852 5853 5853 5853 5855 5856 5857 5857 5856 5855 5855 5857 5858 5859 5859 5859 5858 5857 5856 5855 5854 5853 5851 5850 5847 5844 5842 5840 5838 5837 5835 5832 5830 5828 5826 5824 5822 5820 5817 5814 5811 5808 5806 5803 5800 5797 5793 5789 5785 5781 5778 5775 5772 5769 5767 5764 5761 5758 5755
5834 5834 5834 5835 5835 5836 5836 5837 5837 5838 5839 5839 5838 5838 5839 5841 5842 5842 5842 5843 5843 5844 5844 5845 5846 5846 5847 5847 5848 5849 5850 5851 5851 5851 5850 5850 5850 5852 5853 5854 5854 5853 5853 5852 5851 5850 5849 5848 5847 5846 5843 5841 5839 5837 5834 5832 5830 5828 5826 5824 5822 5820 5818 5816 5813 5810 5807 5805 5802 5799 5796 5793 5789 5785 5781 5777 5774 5771 5768 5766 5763 5761 5758 5754 5751
5828 5829 5829 5830 5830 5832 5833 5832 5832 5832 5833 5834 5833 5834 5834 5835 5836 5837 5837 5837 5838 5838 5839 5840 5840 5841 5841 5841 5842 5844 5844 5845 5845 5845 5844 5844 5846 5847 5849 5850 5849 5848 5847 5847 5847 5846 5844 5844 5843 5842 5840 5837 5835 5833 5830 5828 5825 5823 5821 5819 5818 5816 5814 5811 5809 5806 5803 5801 5798 5795 5791 5788 5784 5780 5776 5773 5770 5768 5765 5762 5760 5757 5754 5751 5747
5822 5822 5823 5824 5825 5826 5828 5828 5827 5827 5829 5829 5829 5830 5830 5830 5831 5831 5831 5832 5832 5833 5834 5834 5834 5835 5835 5836 5837 5838 5838 5838 5839 5839 5838 5840 5841 5843 5844 5844 5843 5842 5842 5843 5842 5841 5840 5840 5839 5837 5835 5833 5830 5828 5826 5823 5821 5819 5817 5815 5813 5812 5809 5807 5804 5802 5799 5797 5794 5790 5786 5782 5779 5775 5772 5769 5767 5764 5762 5759 5756 5753 5750 5747 5743
5816 5816 5817 5818 5819 5820 5822 5823 5821 5821 5823 5823 5824 5824 5824 5825 5826 5826 5826 5826 5827 5827 5828 5828 5828 5829 5830 5830 5831 5832 5832 5833 5833 5833 5833 5835 5837 5838 5839 5839 5837 5836 5837 5837 5836 5836 5835 5835 5834 5833 5831 5828 5826 5824 5822 5819 5817 5815 5812 5811 5809 5807 5805 5803 5800 5798 5795 5792 5789 5785 5781 5778 5774 5771 5768 5765 5763 5761 5758 5756 5753 5750 5747 5743 5739
5810 5811 5812 5813 5813 5814 5815 5816 5816 5816 5816 5817 5817 5818 5818 5819 5819 5819 5820 5820 5820 5821 5821 5822 5823 5823 5824 5825 5826 5827 5827 5828 5827 5826 5827 5830 5831 5833 5834 5833 5831 5830 5832 5832 5831 5831 5831 5830 5829 5828 5826 5823 5821 5819 5817 5815 5813 5811 5808 5807 5805 5803 5801 5799 5796 5794 5791 5788 5784 5780 5777 5774 5770 5767 5765 5762 5760 5758 5755 5752 5749 5747 5743 5739 5735
5804 5805 5806 5807 5808 5808 5809 5810 5810 5810 5810 5810 5811 5811 5812 5812 5812 5812 5812 5813 5814 5815 5815 5816 5817 5817 5818 5820 5821 5821 5821 5821 5819 5819 5820 5823 5825 5827 5828 5827 5824 5825 5826 5826 5827 5827 5826 5825 5824 5823 5821 5819 5817 5815 5813 5811 5809 5807 5805 5803 5801 5799 5797 5794 5792 5790 5786 5783 5779 5776 5773 5770 5767 5764 5762 5760 5757 5755 5752 5749 5746 5743 5740 5736 5731
5798 5799 5800 5801 5802 5802 5802 5803 5804 5804 5804 5803 5803 5804 5805 5805 5805 5806 5806 5806 5808 5808 5809 5810 5811 5810 5811 5813 5814 5814 5814 5812 5811 5812 5814 5816 5818 5820 5821 5820 5819 5819 5820 5821 5822 5824 5822 5820 5819 5817 5815 5814 5812 5810 5808 5806 5804 5802 5800 5799 5797 5795 5793 5790 5788 5785 5782 5778 5775 5772 5769 5766 5764 5762 5759 5757 5755 5752 5750 5747 5743 5740 5736 5732 5727
5792 5793 5793 5794 5795 5795 5795 5796 5796 5797 5796 5796 5796 5796 5797 5798 5799 5799 5801 5801 5801 5802 5802 5802 5803 5803 5804 5805 5806 5806 5805 5804 5804 5806 5808 5810 5811 5812 5812 5812 5811 5812 5813 5814 5817 5818 5816 5815 5813 5812 5810 5809 5807 5805 5803 5802 5800 5798 5796 5794 5792 5790 5788 5786 5784 5781 5777 5774 5771 5768 5765 5763 5761 5759 5756 5754 5752 5749 5747 5744 5741 5737 5733 5728 5724
5786 5786 5787 5787 5788 5788 5788 5788 5788 5788 5788 5788 5788 5789 5789 5790 5790 5791 5793 5794 5794 5795 5794 5794 5794 5795 5795 5795 5797 5797 5795 5794 5795 5797 5799 5801 5802 5802 5802 5803 5803 5804 5805 5807 5809 5810 5810 5809 5808 5806 5805 5804 5802 5800 5798 5797 5795 5793 5791 5789 5788 5786 5784 5782 5779 5776 5773 5770 5767 5764 5762 5759 5757 5755 5753 5751 5749 5746 5744 5741 5738 5734 5730 5725 5721
5779 5780 5780 5780 5780 5780 5781 5781 5781 5780 5780 5779 5779 5779 5780 5780 5780 5780 5782 5783 5784 5786 5787 5786 5786 5785 5785 5788 5790 5787 5783 5782 5784 5785 5788 5792 5794 5794 5794 5795 5797 5797 5798 5800 5802 5803 5804 5803 5802 5801 5799 5798 5796 5794 5793 5791 5790 5788 5786 5784 5783 5781 5780 5778 5775 5772 5769 5766 5763 5760 5758 5756 5754 5752 5750 5748 5745 5743 5740 5738 5735 5731 5726 5722 5718
5772 5772 5773 5773 5773 5773 5773 5773 5773 5772 5771 5771 5770 5769 5769 5769 5770 5771 5772 5773 5774 5775 5777 5777 5777 5776 5778 5781 5780 5775 5773 5774 5774 5775 5778 5782 5784 5786 5788 5790 5790 5791 5791 5793 5795 5797 5798 5797 5796 5795 5794 5792 5791 5789 5787 5786 5784 5782 5781 5780 5778 5777 5775 5773 5770 5767 5765 5762 5760 5757 5755 5753 5750 5748 5746 5744 5742 5739 5737 5735 5731 5728 5724 5720 5716
5764 5764 5765 5765 5765 5765 5765 5765 5764 5763 5761 5760 5759 5759 5759 5760 5761 5762 5762 5763 5763 5765 5766 5767 5768 5768 5769 5770 5768 5766 5768 5770 5768 5767 5770 5773 5775 5778 5781 5783 5783 5783 5784 5787 5789 5790 5791 5791 5790 5789 5788 5786 5785 5783 5782 5781 5779 5777 5776 5775 5773 5772 5771 5768 5765 5763 5760 5758 5756 5753 5751 5749 5746 5745 5743 5741 5739 5737 5734 5732 5728 5725 5721 5717 5713
5756 5757 5757 5756 5757 5756 5755 5754 5753 5752 5751 5750 5749 5749 5749 5749 5750 5751 5753 5753 5754 5754 5754 5755 5756 5757 5757 5757 5756 5757 5761 5762 5760 5760 5762 5764 5766 5768 5771 5774 5775 5776 5778 5781 5783 5783 5784 5784 5783 5783 5782 5780 5779 5778 5776 5775 5774 5772 5771 5770 5769 5767 5766 5763 5761 5758 5756 5754 5752 5750 5747 5745 5743 5741 5740 5738 5736 5734 5732 5729 5725 5722 5717 5714 5710
5748 5748 5748 5748 5747 5746 5745 5744 5743 5742 5742 5741 5740 5739 5737 5737 5739 5741 5742 5743 5742 5741 5742 5742 5743 5744 5746 5747 5747 5747 5750 5753 5755 5755 5756 5756 5756 5757 5762 5765 5767 5769 5772 5775 5776 5776 5776 5777 5777 5776 5775 5774 5773 5772 5771 5770 5769 5768 5766 5765 5764 5762 5761 5759 5756 5754 5752 5750 5748 5746 5743 5741 5739 5738 5737 5735 5733 5731 5729 5726 5722 5719 5715 5711 5708
5739 5739 5739 5739 5738 5736 5735 5734 5733 5733 5732 5730 5729 5727 5725 5726 5728 5729 5729 5729 5728 5727 5726 5727 5728 5731 5734 5736 5736 5735 5738 5744 5748 5749 5750 5750 5749 5751 5756 5759 5760 5762 5766 5768 5768 5769 5769 5770 5771 5770 5768 5768 5767 5766 5765 5764 5764 5763 5761 5760 5759 5757 5756 5754 5752 5750 5748 5746 5744 5742 5739 5737 5736 5735 5733 5732 5730 5728 5726 5723 5720 5716 5713 5710 5707
5732 5731 5731 5730 5729 5728 5726 5725 5724 5723 5722 5719 5717 5715 5713 5712 5713 5713 5711 5708 5705 5707 5710 5712 5715 5721 5725 5724 5724 5726 5730 5734 5739 5741 5741 5741 5742 5745 5750 5752 5753 5756 5759 5760 5761 5762 5763 5763 5764 5763 5762 5762 5761 5760 5760 5759 5758 5757 5756 5755 5753 5752 5751 5749 5747 5746 5744 5742 5740 5737 5735 5734 5732 5731 5730 5729 5727 5725 5723 5720 5717 5714 5711 5708 5705
5724 5723 5723 5722 5721 5719 5718 5716 5714 5712 5711 5708 5705 5702 5700 5698 5695 5694 5690 5685 5683 5687 5694 5698 5704 5712 5716 5711 5710 5715 5720 5723 5728 5733 5734 5733 5735 5739 5743 5746 5748 5750 5752 5752 5754 5756 5756 5757 5757 5756 5756 5756 5755 5754 5754 5754 5753 5752 5751 5749 5748 5747 5746 5744 5743 5741 5740 5738 5736 5733 5731 5730 5729 5728 5727 5726 5724 5722 5720 5718 5715 5712 5709 5706 5702
5716 5716 5715 5714 5713 5712 5710 5708 5706 5703 5700 5696 5693 5692 5691 5687 5683 5680 5677 5674 5671 5673 5682 5692 5697 5698 5699 5699 5701 5705 5708 5710 5716 5722 5725 5726 5730 5733 5736 5740 5743 5744 5745 5746 5747 5749 5750 5750 5750 5750 5749 5749 5749 5748 5748 5748 5747 5747 5745 5744 5743 5742 5741 5739 5738 5737 5735 5733 5731 5729 5727 5726 5726 5725 5724 5722 5721 5719 5717 5715 5712 5709 5706 5703 5700
5710 5709 5709 5707 5706 5705 5703 5701 5697 5694 5691 5687 5684 5684 5683 5680 5676 5673 5670 5667 5663 5664 5677 5694 5691 5674 5668 5682 5696 5699 5698 5700 5705 5711 5715 5720 5725 5728 5731 5734 5737 5738 5739 5740 5741 5742 5743 5743 5743 5743 5743 5743 5743 5743 5743 5742 5742 5741 5740 5739 5738 5737 5736 5735 5734 5733 5731 5729 5727 5725 5724 5723 5722 5721 5720 5719 5718 5716 5715 5712 5709 5706 5703 5700 5698
5704 5703 5702 5701 5700 5699 5696 5693 5689 5687 5684 5681 5679 5679 5678 5675 5674 5672 5667 5663 5660 5663 5676 5691 5684 5662 5657 5676 5691 5692 5689 5693 5698 5702 5707 5713 5719 5722 5725 5728 5730 5731 5732 5734 5735 5735 5736 5736 5737 5737 5737 5737 5737 5737 5737 5737 5736 5735 5734 5734 5733 5732 5731 5730 5729 5728 5726 5725 5723 5722 5720 5719 5719 5718 5716 5715 5714 5713 5711 5709 5706 5703 5700 5698 5695
5698 5698 5697 5696 5695 5693 5690 5687 5685 5681 5679 5677 5675 5674 5674 5673 5672 5671 5669 5666 5667 5670 5676 5681 5675 5665 5667 5681 5688 5686 5686 5690 5694 5697 5701 5707 5712 5715 5718 5721 5723 5724 5726 5727 5728 5728 5729 5730 5730 5730 5731 5731 5731 5731 5731 5731 5730 5729 5729 5729 5728 5727 5727 5725 5724 5723 5722 5721 5720 5718 5717 5716 5715 5714 5713 5712 5711 5709 5708 5705 5703 5700 5697 5695 5693
5692 5692 5691 5691 5690 5688 5686 5684 5682 5679 5676 5673 5672 5672 5672 5671 5669 5669 5669 5669 5670 5673 5677 5677 5672 5667 5670 5677 5681 5682 5685 5688 5689 5692 5696 5700 5705 5709 5712 5714 5716 5718 5719 5720 5721 5722 5723 5724 5724 5724 5724 5724 5724 5725 5725 5725 5725 5724 5724 5723 5723 5723 5722 5721 5720 5719 5718 5717 5716 5714 5713 5712 5711 5710 5709 5708 5707 5706 5704 5702 5699 5696 5694 5692 5691
5685 5686 5686 5686 5686 5685 5683 5681 5680 5678 5675 5673 5672 5671 5671 5671 5670 5670 5669 5670 5670 5671 5673 5674 5673 5671 5672 5674 5677 5680 5683 5685 5686 5689 5692 5696 5701 5704 5707 5709 5710 5711 5712 5714 5715 5716 5717 5718 5718 5718 5718 5718 5719 5719 5719 5719 5719 5719 5718 5718 5718 5718 5717 5716 5715 5714 5713 5713 5711 5710 5709 5708 5707 5706 5705 5704 5703 5702 5701 5698 5696 5693 5691 5689 5688
5679 5680 5681 5681 5681 5680 5679 5678 5677 5676 5674 5673 5672 5670 5670 5671 5672 5672 5672 5671 5672 5672 5672 5672 5673 5673 5674 5676 5678 5680 5682 5684 5686 5688 5691 5694 5697 5699 5701 5702 5704 5705 5707 5708 5709 5710 5711 5711 5712 5712 5712 5712 5713 5714 5713 5713 5713 5713 5713 5713 5713 5713 5712 5711 5710 5710 5709 5708 5707 5706 5705 5704 5703 5702 5702 5701 5699 5698 5697 5695 5692 5690 5688 5687 5685
5673 5674 5675 5676 5675 5675 5675 5674 5673 5673 5672 5671 5671 5670 5669 5669 5670 5671 5671 5671 5671 5671 5672 5672 5673 5673 5675 5676 5678 5679 5681 5683 5684 5686 5688 5690 5692 5694 5695 5697 5698 5699 5701 5702 5703 5704 5705 5705 5706 5706 5706 5707 5707 5708 5708 5708 5708 5708 5708 5708 5708 5707 5707 5706 5706 5705 5704 5704 5703 5702 5700 5700 5699 5698 5698 5697 5695 5694 5692 5691 5689 5687 5685 5684 5683
5668 5668 5669 5670 5670 5670 5670 5669 5669 5669 5669 5669 5668 5668 5667 5668 5668 5668 5668 5669 5669 5669 5669 5670 5671 5672 5673 5674 5675 5677 5678 5679 5681 5682 5684 5685 5687 5689 5690 5691 5692 5694 5695 5697 5697 5698 5698 5699 5699 5700 5700 5701 5702 5702 5702 5702 5702 5703 5703 5703 5703 5702 5702 5701 5700 5700 5700 5699 5698 5697 5696 5695 5695 5694 5693 5693 5691 5690 5688 5687 5685 5683 5682 5681 5680
5661 5662 5663 5663 5664 5664 5664 5664 5664 5665 5665 5665 5665 5665 5665 5665 5666 5666 5665 5665 5666 5667 5666 5666 5667 5669 5669 5669 5670 5672 5674 5675 5676 5678 5679 5680 5682 5683 5684 5685 5686 5688 5689 5690 5691 5692 5692 5693 5693 5694 5694 5695 5696 5696 5696 5697 5697 5697 5698 5698 5697 5697 5696 5696 5695 5695 5695 5694 5694 5693 5692 5691 5690 5690 5689 5688 5687 5685 5684 5683 5681 5680 5679 5678 5677
5655 5656 5656 5657 5658 5658 5658 5659 5659 5661 5661 5661 5661 5661 5661 5662 5662 5662 5662 5662 5663 5664 5663 5663 5665 5665 5665 5664 5664 5666 5668 5670 5671 5673 5674 5675 5676 5677 5678 5679 5680 5681 5682 5683 5684 5685 5686 5687 5687 5688 5688 5689 5689 5690 5691 5691 5691 5692 5692 5692 5692 5692 5691 5690 5690 5690 5690 5690 5689 5688 5688 5687 5686 5685 5685 5684 5683 5681 5680 5679 5677 5676 5675 5675 5674
5650 5650 5650 5651 5652 5653 5653 5654 5655 5656 5657 5657 5657 5656 5657 5658 5658 5658 5657 5657 5658 5659 5659 5660 5662 5662 5661 5660 5661 5662 5663 5664 5665 5666 5667 5668 5669 5670 5672 5673 5674 5675 5676 5677 5678 5679 5680 5681 5681 5681 5682 5682 5683 5684 5685 5685 5685 5686 5686 5686 5686 5686 5685 5685 5685 5685 5685 5685 5684 5684 5683 5682 5681 5681 5681 5680 5679 5677 5676 5675 5674 5673 5672 5671 5670
5645 5645 5645 5645 5646 5647 5648 5649 5650 5651 5652 5653 5653 5653 5653 5653 5653 5654 5654 5653 5653 5654 5654 5655 5655 5655 5655 5655 5656 5657 5657 5658 5659 5660 5662 5663 5664 5665 5666 5667 5668 5670 5671 5672 5673 5674 5675 5675 5675 5675 5676 5676 5677 5678 5678 5679 5680 5680 5681 5681 5681 5681 5680 5680 5680 5680 5680 5680 5679 5679 5678 5677 5677 5677 5676 5676 5675 5673 5672 5671 5670 5669 5668 5668 5667
5640 5640 5640 5640 5641 5642 5642 5644 5645 5647 5647 5648 5648 5649 5648 5648 5649 5650 5649 5648 5647 5648 5648 5649 5649 5648 5649 5650 5651 5652 5653 5654 5655 5655 5656 5657 5659 5660 5661 5662 5663 5665 5666 5667 5668 5668 5668 5669 5669 5669 5670 5670 5671 5671 5672 5673 5673 5674 5674 5675 5675 5675 5675 5675 5675 5675 5675 5674 5674 5673 5673 5672 5672 5672 5672 5672 5671 5670 5668 5667 5666 5665 5664 5664 5663